STARLINK-37891

Last updated on Sun Aug 09 2026 00:02:04 GMT+0000 (Coordinated Universal Time)

1 69948U 26157F 26220.58335648 -.00001717 00000+0 -22810-4 0 9995 2 69948 53.1586 174.8930 0001173 97.0758 3.0720 15.49310659 6085
UTC large
Height (km)
Speed (km/s)
/
Latitude / Longitude
Inclination (degrees)
Orbital Period (minutes)
Azimuth
Elevation
Range (km)
Doppler Factor

Next 0 passes for location: London (51.5072 / 0.1276)

No passes found over London.
STARLINK-37891